Location: *
(58.7167°N, 26.1833°E)
Time: 00:14:29
(UTC+00:00)

NOSS 2-2 (E) - Pass Details

Date: 25 August 2019
Orbit: 491 x 1716 km, 63.3° (Epoch: 13 September)

Event Time Altitude Azimuth Distance (km) Brightness Sun altitude
Rises 21:13:13 0° 302° (WNW) 3,078 7.9 -19.5°
Reaches altitude 10° 21:15:16 10° 301° (WNW) 2,288 7.1 -19.5°
Maximum altitude 21:20:32 77° 217° (SW) 958 4.3 -19.7°
Enters shadow 21:24:25 28° 135° (SE) 1,900 5.5 -19.8°
